Regional Weather Roundup
Issued by NWS Cleveland, OH

Home | Current Version | Previous Version | Graphics & Text | Print | Product List | Glossary On
Versions: 1 2 3 4 5 6 7 8 9 10 11 12 13 14 15 16 17 18 19 20 21 22 23 24 25 26 27 28 29 30 31 32 33 34 35 36 37 38 39 40 41 42 43 44 45 46 47 48 49 50
000
ASUS41 KCLE 221500
RWRCLE
OHIO REGIONAL WEATHER ROUNDUP
NATIONAL WEATHER SERVICE WILMINGTON, OH
1100 AM EDT MON SEP 22 2014

NOTE: "FAIR" INDICATES FEW OR NO CLOUDS BELOW 12,000 FEET WITH NO
SIGNIFICANT WEATHER AND/OR OBSTRUCTIONS TO VISIBILITY.

OHZ001>008-015>018-024>027-034-035-043-044-221600-
   NORTHWEST OHIO

CITY           SKY/WX    TMP DP  RH WIND       PRES   REMARKS
DEFIANCE       MOSUNNY  N/A N/A N/A VRB6      30.25R
FINDLAY        PTSUNNY   52  38  58 N9        30.23R
TOLEDO EXPRESS CLOUDY    52  39  61 NW10      30.23R
TOLEDO METCALF CLOUDY    52  37  56 N7        30.23R
LIMA           MOSUNNY   53  40  61 N7        30.24R
$$

OHZ009>014-019>023-028>033-038-089-221600-
   NORTHEAST OHIO

CITY           SKY/WX    TMP DP  RH WIND       PRES   REMARKS
CLE-HOPKINS    CLOUDY    53  41  63 NW15G22   30.20R
CLE-LAKEFRONT  CLOUDY    54  41  61 NW15      30.17R
CUY CO. ARPT   CLOUDY    54  43  66 N14       30.17R
LORAIN-ELYRIA  CLOUDY    55  41  59 N10       30.20R
ASHTABULA      CLOUDY    53  44  71 NW8       30.14R
AKRON-CANTON   CLOUDY    55  42  61 NW10      30.16R
WOOSTER        NOT AVBL
MANSFIELD      CLOUDY    51  39  63 NW8       30.20R
YOUNGSTOWN     CLOUDY    53  44  71 NW10      30.14R
$$

OHZ042-051>053-060>062-070>072-077>081-221600-
  SOUTHWEST OHIO

CITY           SKY/WX    TMP DP  RH WIND       PRES   REMARKS
CINC-COVINGTON PTSUNNY   54  42  64 N8        30.24R
CINC-LUNKEN    CLOUDY    55  43  63 N8        30.25R
HAMILTON       CLOUDY    54  43  66 NW7       30.26R
DAYTON         NOT AVBL
WRIGHT-PAT AFB PTSUNNY   52  39  60 N6        30.24R
DAYTON GENERAL CLOUDY    52  42  69 N9        30.23R
WILMINGTON     CLOUDY    54  43  66 N8        30.22R
$$

OHZ036-037-039>041-045>050-054>059-063>069-073>076-082>088-221600-
  CENTRAL AND SOUTHEAST OHIO

CITY           SKY/WX    TMP DP  RH WIND       PRES   REMARKS
COLUMBUS       CLOUDY    55  39  54 CALM      30.21R
OSU AIRPORT    CLOUDY    52  39  61 NW7       30.21R
BOLTON FIELD   PTSUNNY   52  39  62 N6        30.22R
RICKENBACK AFB NOT AVBL
NEWARK         CLOUDY    53  42  66 VRB3      30.20R
MARION         CLOUDY    51  37  58 N9        30.23R
LANCASTER      PTSUNNY   54  41  61 NW9       30.21R
ZANESVILLE     CLOUDY    54  45  71 W9        30.19R
NEW PHILLY     CLOUDY    57  42  57 NW8       30.17R
$$



USA.gov is the U.S. government's official web portal to all federal, state and local government web resources and services.